User: anonymous   Login
Location: Rounton
(54.4000°N, 1.3500°W)
Time: 21:47:53
(UTC+01:00)
Language:

A-11 Canister half - Orbit

View from above orbital plane
View from above orbital plane
View from above satellite
View from above satellite

Ground track
Ground track

The orbit data is extracted from the following two-line orbital elements,

1 00053U 60009E   22274.49436548 -.00000043  00000-0  41509-3 0  9993
2 00053  47.2755 200.7164 0100195  30.9725 329.6923 12.17280325770405
Epoch (UTC): 01 October 2022 11:51:53
Eccentricity: 0.0100195
inclination: 47.2755°
perigee height: 1524 km
apogee height: 1684 km
right ascension of ascending node: 200.7164°
argument of perigee: 30.9725°
revolutions per day: 12.17280325
mean anomaly at epoch: 329.6923°
orbit number at epoch: 77040

The dashed part of the orbit path shows where the satellite is in the earth's shadow,  

DLR